Wetterdaten: Montag, 11.01.2016
Datum Zeit Temp. A. Feuchte A. Luftdruck Regen Wind Richtung Richtung Sonnenschein ET UV Solar Taupunkt Windchill Windben Empfang
11.01.2016 00:00 1,1 C 99 % 1000,0 hPa 0,0 l/m 3,4 km/h (1 Bft) SW 232 0 min 0,000 mm 0,0 UV-I 0 W/m 1,0 C 1,1 C 8,0 km/h (2 Bft) 98,21 %
11.01.2016 00:05 1,0 C 99 % 1000,2 hPa 0,0 l/m 5,5 km/h (1 Bft) S 188 0 min 0,000 mm 0,0 UV-I 0 W/m 0,9 C 1,0 C 11,3 km/h (2 Bft) 97,27 %
11.01.2016 00:10 0,9 C 99 % 1000,0 hPa 0,0 l/m 5,1 km/h (1 Bft) W-SW 254 0 min 0,000 mm 0,0 UV-I 0 W/m 0,8 C 0,9 C 11,3 km/h (2 Bft) 100,00 %
11.01.2016 00:15 0,9 C 99 % 999,8 hPa 0,0 l/m 5,0 km/h (1 Bft) O-SO 121 0 min 0,000 mm 0,0 UV-I 0 W/m 0,8 C 0,9 C 11,3 km/h (2 Bft) 97,46 %
11.01.2016 00:20 0,9 C 99 % 1000,0 hPa 0,0 l/m 5,0 km/h (1 Bft) SO 128 0 min 0,000 mm 0,0 UV-I 0 W/m 0,8 C 0,9 C 11,3 km/h (2 Bft) 97,62 %
11.01.2016 00:25 0,9 C 99 % 999,9 hPa 0,0 l/m 2,8 km/h (1 Bft) S-SO 149 0 min 0,000 mm 0,0 UV-I 0 W/m 0,8 C 0,9 C 6,4 km/h (2 Bft) 100,00 %
11.01.2016 00:30 0,9 C 99 % 1000,0 hPa 0,0 l/m 2,8 km/h (1 Bft) NW 307 0 min 0,000 mm 0,0 UV-I 0 W/m 0,8 C 0,9 C 8,0 km/h (2 Bft) 100,00 %
11.01.2016 00:35 0,9 C 99 % 1000,0 hPa 0,0 l/m 1,1 km/h (1 Bft) W 280 0 min 0,000 mm 0,0 UV-I 0 W/m 0,8 C 0,9 C 4,8 km/h (1 Bft) 100,00 %
11.01.2016 00:40 0,8 C 99 % 1000,2 hPa 0,0 l/m 1,3 km/h (1 Bft) NW 310 0 min 0,000 mm 0,0 UV-I 0 W/m 0,7 C 0,8 C 4,8 km/h (1 Bft) 100,00 %
11.01.2016 00:45 0,8 C 99 % 1000,3 hPa 0,0 l/m 0,2 km/h (0 Bft) NW 310 0 min 0,000 mm 0,0 UV-I 0 W/m 0,7 C 0,8 C 3,2 km/h (1 Bft) 100,00 %
11.01.2016 00:50 0,8 C 99 % 1000,2 hPa 0,0 l/m 0,9 km/h (0 Bft) NW 311 0 min 0,000 mm 0,0 UV-I 0 W/m 0,7 C 0,8 C 3,2 km/h (1 Bft) 99,10 %
11.01.2016 00:55 0,8 C 99 % 1000,2 hPa 0,0 l/m 1,9 km/h (1 Bft) O-SO 107 0 min 0,000 mm 0,0 UV-I 0 W/m 0,7 C 0,8 C 6,4 km/h (2 Bft) 99,19 %
11.01.2016 01:00 0,8 C 99 % 1000,3 hPa 0,0 l/m 1,7 km/h (1 Bft) O-NO 78 0 min 0,000 mm 0,0 UV-I 0 W/m 0,7 C 0,8 C 4,8 km/h (1 Bft) 100,00 %
11.01.2016 01:05 0,9 C 99 % 1000,4 hPa 0,0 l/m 0,4 km/h (0 Bft) O-NO 78 0 min 0,000 mm 0,0 UV-I 0 W/m 0,8 C 0,9 C 3,2 km/h (1 Bft) 100,00 %
11.01.2016 01:10 0,9 C 99 % 1000,7 hPa 0,0 l/m 0,0 km/h (0 Bft) O-NO 78 0 min 0,000 mm 0,0 UV-I 0 W/m 0,8 C 0,9 C 0,0 km/h (0 Bft) 98,39 %
11.01.2016 01:15 0,8 C 99 % 1000,8 hPa 0,0 l/m 0,0 km/h (0 Bft) O-NO 78 0 min 0,000 mm 0,0 UV-I 0 W/m 0,7 C 0,8 C 0,0 km/h (0 Bft) 100,00 %
11.01.2016 01:20 0,9 C 99 % 1001,0 hPa 0,0 l/m 0,4 km/h (0 Bft) NO 53 0 min 0,000 mm 0,0 UV-I 0 W/m 0,8 C 0,9 C 3,2 km/h (1 Bft) 99,11 %
11.01.2016 01:25 0,9 C 99 % 1001,0 hPa 0,0 l/m 1,0 km/h (0 Bft) NO 53 0 min 0,000 mm 0,0 UV-I 0 W/m 0,8 C 0,9 C 4,8 km/h (1 Bft) 98,31 %
11.01.2016 01:30 0,9 C 99 % 1001,3 hPa 0,0 l/m 2,4 km/h (1 Bft) W-NW 300 0 min 0,000 mm 0,0 UV-I 0 W/m 0,8 C 0,9 C 4,8 km/h (1 Bft) 98,25 %
11.01.2016 01:35 0,9 C 99 % 1001,2 hPa 0,0 l/m 0,3 km/h (0 Bft) W-NW 300 0 min 0,000 mm 0,0 UV-I 0 W/m 0,8 C 0,9 C 3,2 km/h (1 Bft) 96,69 %
11.01.2016 01:40 0,9 C 99 % 1001,3 hPa 0,0 l/m 0,5 km/h (0 Bft) NW 306 0 min 0,000 mm 0,0 UV-I 0 W/m 0,8 C 0,9 C 3,2 km/h (1 Bft) 95,61 %
11.01.2016 01:45 1,0 C 99 % 1001,3 hPa 0,0 l/m 1,5 km/h (1 Bft) NW 309 0 min 0,000 mm 0,0 UV-I 0 W/m 0,9 C 1,0 C 4,8 km/h (1 Bft) 97,58 %
11.01.2016 01:50 1,1 C 99 % 1001,5 hPa 0,0 l/m 1,4 km/h (1 Bft) W-NW 286 0 min 0,000 mm 0,0 UV-I 0 W/m 1,0 C 1,1 C 4,8 km/h (1 Bft) 97,39 %
11.01.2016 01:55 1,1 C 99 % 1001,4 hPa 0,0 l/m 0,2 km/h (0 Bft) W-NW 294 0 min 0,000 mm 0,0 UV-I 0 W/m 1,0 C 1,1 C 1,6 km/h (1 Bft) 96,58 %
11.01.2016 02:00 1,1 C 99 % 1001,4 hPa 0,0 l/m 0,2 km/h (0 Bft) W-NW 294 0 min 0,000 mm 0,0 UV-I 0 W/m 1,0 C 1,1 C 1,6 km/h (1 Bft) 97,25 %
11.01.2016 02:05 1,2 C 99 % 1001,5 hPa 0,0 l/m 0,2 km/h (0 Bft) W-NW 294 0 min 0,000 mm 0,0 UV-I 0 W/m 1,1 C 1,2 C 3,2 km/h (1 Bft) 97,52 %
11.01.2016 02:10 1,3 C 99 % 1001,5 hPa 0,0 l/m 0,4 km/h (0 Bft) W-NW 294 0 min 0,000 mm 0,0 UV-I 0 W/m 1,2 C 1,3 C 1,6 km/h (1 Bft) 98,33 %
11.01.2016 02:15 1,3 C 99 % 1001,4 hPa 0,0 l/m 1,4 km/h (1 Bft) W-NW 293 0 min 0,000 mm 0,0 UV-I 0 W/m 1,2 C 1,3 C 1,6 km/h (1 Bft) 100,00 %
11.01.2016 02:20 1,3 C 99 % 1001,6 hPa 0,0 l/m 0,3 km/h (0 Bft) W-NW 293 0 min 0,000 mm 0,0 UV-I 0 W/m 1,2 C 1,3 C 1,6 km/h (1 Bft) 98,25 %
11.01.2016 02:25 1,2 C 99 % 1001,7 hPa 0,0 l/m 2,7 km/h (1 Bft) W-NW 293 0 min 0,000 mm 0,0 UV-I 0 W/m 1,1 C 1,2 C 4,8 km/h (1 Bft) 99,13 %
11.01.2016 02:30 1,2 C 99 % 1001,6 hPa 0,0 l/m 3,8 km/h (1 Bft) SO 126 0 min 0,000 mm 0,0 UV-I 0 W/m 1,1 C 1,2 C 4,8 km/h (1 Bft) 99,17 %
11.01.2016 02:35 1,2 C 99 % 1001,4 hPa 0,0 l/m 3,1 km/h (1 Bft) SO 126 0 min 0,000 mm 0,0 UV-I 0 W/m 1,1 C 1,2 C 4,8 km/h (1 Bft) 99,07 %
11.01.2016 02:40 1,2 C 99 % 1001,3 hPa 0,0 l/m 0,9 km/h (0 Bft) S-SO 150 0 min 0,000 mm 0,0 UV-I 0 W/m 1,1 C 1,2 C 3,2 km/h (1 Bft) 97,58 %
11.01.2016 02:45 1,2 C 99 % 1001,4 hPa 0,0 l/m 0,7 km/h (0 Bft) S-SO 150 0 min 0,000 mm 0,0 UV-I 0 W/m 1,1 C 1,2 C 3,2 km/h (1 Bft) 98,31 %
11.01.2016 02:50 1,3 C 99 % 1001,2 hPa 0,0 l/m 0,8 km/h (0 Bft) S-SO 150 0 min 0,000 mm 0,0 UV-I 0 W/m 1,2 C 1,3 C 3,2 km/h (1 Bft) 97,37 %
11.01.2016 02:55 1,2 C 99 % 1001,0 hPa 0,0 l/m 2,3 km/h (1 Bft) O-SO 122 0 min 0,000 mm 0,0 UV-I 0 W/m 1,1 C 1,2 C 6,4 km/h (2 Bft) 99,11 %
11.01.2016 03:00 1,1 C 99 % 1000,8 hPa 0,0 l/m 4,0 km/h (1 Bft) O 101 0 min 0,000 mm 0,0 UV-I 0 W/m 1,0 C 1,1 C 11,3 km/h (2 Bft) 100,00 %
11.01.2016 03:05 1,1 C 99 % 1000,7 hPa 0,0 l/m 9,9 km/h (2 Bft) O-NO 77 0 min 0,000 mm 0,0 UV-I 0 W/m 1,0 C -2,2 C 14,5 km/h (3 Bft) 99,17 %
11.01.2016 03:10 1,2 C 99 % 1000,7 hPa 0,0 l/m 5,1 km/h (1 Bft) SO 138 0 min 0,000 mm 0,0 UV-I 0 W/m 1,1 C 1,2 C 9,7 km/h (2 Bft) 100,00 %
11.01.2016 03:15 1,3 C 99 % 1000,7 hPa 0,0 l/m 4,2 km/h (1 Bft) SO 128 0 min 0,000 mm 0,0 UV-I 0 W/m 1,2 C 1,3 C 8,0 km/h (2 Bft) 99,10 %
11.01.2016 03:20 1,4 C 99 % 1000,7 hPa 0,0 l/m 3,7 km/h (1 Bft) S-SO 161 0 min 0,000 mm 0,0 UV-I 0 W/m 1,3 C 1,4 C 6,4 km/h (2 Bft) 100,00 %
11.01.2016 03:25 1,4 C 99 % 1000,7 hPa 0,0 l/m 1,2 km/h (1 Bft) S-SO 161 0 min 0,000 mm 0,0 UV-I 0 W/m 1,3 C 1,4 C 3,2 km/h (1 Bft) 97,52 %
11.01.2016 03:30 1,3 C 99 % 1000,6 hPa 0,0 l/m 0,4 km/h (0 Bft) S 175 0 min 0,000 mm 0,0 UV-I 0 W/m 1,2 C 1,3 C 1,6 km/h (1 Bft) 99,15 %
11.01.2016 03:35 1,3 C 99 % 1000,5 hPa 0,0 l/m 1,1 km/h (1 Bft) S 175 0 min 0,000 mm 0,0 UV-I 0 W/m 1,2 C 1,3 C 3,2 km/h (1 Bft) 98,39 %
11.01.2016 03:40 1,2 C 99 % 1000,6 hPa 0,0 l/m 1,4 km/h (1 Bft) S 175 0 min 0,000 mm 0,0 UV-I 0 W/m 1,1 C 1,2 C 3,2 km/h (1 Bft) 95,28 %
11.01.2016 03:45 1,1 C 99 % 1000,5 hPa 0,0 l/m 2,2 km/h (1 Bft) O-SO 119 0 min 0,000 mm 0,0 UV-I 0 W/m 1,0 C 1,1 C 3,2 km/h (1 Bft) 96,83 %
11.01.2016 03:50 1,1 C 99 % 1000,5 hPa 0,0 l/m 2,3 km/h (1 Bft) O-SO 116 0 min 0,000 mm 0,0 UV-I 0 W/m 1,0 C 1,1 C 4,8 km/h (1 Bft) 97,46 %
11.01.2016 03:55 1,1 C 99 % 1000,4 hPa 0,0 l/m 2,0 km/h (1 Bft) O-SO 116 0 min 0,000 mm 0,0 UV-I 0 W/m 1,0 C 1,1 C 3,2 km/h (1 Bft) 97,44 %
11.01.2016 04:00 1,1 C 99 % 1000,2 hPa 0,0 l/m 4,2 km/h (1 Bft) O-NO 66 0 min 0,000 mm 0,0 UV-I 0 W/m 1,0 C 1,1 C 8,0 km/h (2 Bft) 96,43 %
11.01.2016 04:05 1,2 C 99 % 1000,2 hPa 0,0 l/m 5,1 km/h (1 Bft) NO 42 0 min 0,000 mm 0,0 UV-I 0 W/m 1,1 C 1,2 C 8,0 km/h (2 Bft) 96,43 %
11.01.2016 04:10 1,2 C 99 % 999,9 hPa 0,0 l/m 5,5 km/h (1 Bft) N-NO 17 0 min 0,000 mm 0,0 UV-I 0 W/m 1,1 C 1,2 C 9,7 km/h (2 Bft) 97,32 %
11.01.2016 04:15 1,1 C 99 % 999,9 hPa 0,0 l/m 6,0 km/h (2 Bft) NO 36 0 min 0,000 mm 0,0 UV-I 0 W/m 1,0 C 1,1 C 8,0 km/h (2 Bft) 98,21 %
11.01.2016 04:20 1,1 C 99 % 999,8 hPa 0,0 l/m 5,8 km/h (2 Bft) NO 49 0 min 0,000 mm 0,0 UV-I 0 W/m 1,0 C 1,1 C 9,7 km/h (2 Bft) 100,00 %
11.01.2016 04:25 1,1 C 99 % 999,8 hPa 0,0 l/m 7,3 km/h (2 Bft) O-NO 65 0 min 0,000 mm 0,0 UV-I 0 W/m 1,0 C 0,2 C 12,9 km/h (3 Bft) 99,12 %
11.01.2016 04:30 1,1 C 99 % 999,7 hPa 0,0 l/m 3,5 km/h (1 Bft) O-NO 59 0 min 0,000 mm 0,0 UV-I 0 W/m 1,0 C 1,1 C 6,4 km/h (2 Bft) 97,52 %
11.01.2016 04:35 1,0 C 99 % 999,6 hPa 0,0 l/m 4,2 km/h (1 Bft) N-NO 30 0 min 0,000 mm 0,0 UV-I 0 W/m 0,9 C 1,0 C 8,0 km/h (2 Bft) 100,00 %
11.01.2016 04:40 0,9 C 99 % 999,4 hPa 0,0 l/m 0,8 km/h (0 Bft) N-NO 30 0 min 0,000 mm 0,0 UV-I 0 W/m 0,8 C 0,9 C 3,2 km/h (1 Bft) 99,19 %
11.01.2016 04:45 1,0 C 99 % 999,4 hPa 0,0 l/m 2,7 km/h (1 Bft) NO 40 0 min 0,000 mm 0,0 UV-I 0 W/m 0,9 C 1,0 C 4,8 km/h (1 Bft) 97,52 %
11.01.2016 04:50 1,1 C 99 % 999,4 hPa 0,0 l/m 4,4 km/h (1 Bft) NO 55 0 min 0,000 mm 0,0 UV-I 0 W/m 1,0 C 1,1 C 8,0 km/h (2 Bft) 98,20 %
11.01.2016 04:55 1,1 C 99 % 999,4 hPa 0,0 l/m 6,8 km/h (2 Bft) NO 55 0 min 0,000 mm 0,0 UV-I 0 W/m 1,0 C 0,7 C 9,7 km/h (2 Bft) 99,17 %
11.01.2016 05:00 1,0 C 99 % 999,2 hPa 0,0 l/m 7,3 km/h (2 Bft) NO 46 0 min 0,000 mm 0,0 UV-I 0 W/m 0,9 C 0,1 C 12,9 km/h (3 Bft) 98,29 %
11.01.2016 05:05 0,9 C 99 % 999,2 hPa 0,0 l/m 8,2 km/h (2 Bft) O-NO 64 0 min 0,000 mm 0,0 UV-I 0 W/m 0,8 C -0,9 C 12,9 km/h (3 Bft) 99,13 %
11.01.2016 05:10 0,9 C 99 % 999,2 hPa 0,0 l/m 8,7 km/h (2 Bft) NO 50 0 min 0,000 mm 0,0 UV-I 0 W/m 0,8 C -1,3 C 14,5 km/h (3 Bft) 100,00 %
11.01.2016 05:15 0,9 C 99 % 999,3 hPa 0,0 l/m 8,7 km/h (2 Bft) NO 41 0 min 0,000 mm 0,0 UV-I 0 W/m 0,8 C -1,3 C 14,5 km/h (3 Bft) 99,17 %
11.01.2016 05:20 0,9 C 99 % 999,0 hPa 0,0 l/m 7,2 km/h (2 Bft) NO 42 0 min 0,000 mm 0,0 UV-I 0 W/m 0,8 C 0,1 C 9,7 km/h (2 Bft) 100,00 %
11.01.2016 05:25 0,9 C 99 % 998,7 hPa 0,0 l/m 8,2 km/h (2 Bft) O-NO 62 0 min 0,000 mm 0,0 UV-I 0 W/m 0,8 C -0,9 C 11,3 km/h (2 Bft) 99,13 %
11.01.2016 05:30 0,9 C 99 % 998,6 hPa 0,0 l/m 8,7 km/h (2 Bft) NO 48 0 min 0,000 mm 0,0 UV-I 0 W/m 0,8 C -1,3 C 12,9 km/h (3 Bft) 98,33 %
11.01.2016 05:35 0,9 C 99 % 998,5 hPa 0,0 l/m 8,3 km/h (2 Bft) O-NO 58 0 min 0,000 mm 0,0 UV-I 0 W/m 0,8 C -1,0 C 12,9 km/h (3 Bft) 99,15 %
11.01.2016 05:40 0,8 C 99 % 998,6 hPa 0,0 l/m 7,2 km/h (2 Bft) NO 53 0 min 0,000 mm 0,0 UV-I 0 W/m 0,7 C -0,0 C 9,7 km/h (2 Bft) 97,39 %
11.01.2016 05:45 0,8 C 99 % 998,4 hPa 0,0 l/m 6,3 km/h (2 Bft) NO 45 0 min 0,000 mm 0,0 UV-I 0 W/m 0,7 C 0,8 C 9,7 km/h (2 Bft) 95,73 %
11.01.2016 05:50 0,8 C 99 % 998,5 hPa 0,0 l/m 6,7 km/h (2 Bft) O-NO 67 0 min 0,000 mm 0,0 UV-I 0 W/m 0,7 C 0,5 C 9,7 km/h (2 Bft) 97,39 %
11.01.2016 05:55 0,9 C 99 % 998,4 hPa 0,0 l/m 5,4 km/h (1 Bft) O-NO 73 0 min 0,000 mm 0,0 UV-I 0 W/m 0,8 C 0,9 C 11,3 km/h (2 Bft) 97,56 %
11.01.2016 06:00 0,9 C 99 % 998,3 hPa 0,0 l/m 5,5 km/h (1 Bft) O-NO 60 0 min 0,000 mm 0,0 UV-I 0 W/m 0,8 C 0,9 C 9,7 km/h (2 Bft) 96,61 %
11.01.2016 06:05 0,8 C 99 % 998,1 hPa 0,0 l/m 7,0 km/h (2 Bft) O-NO 63 0 min 0,000 mm 0,0 UV-I 0 W/m 0,7 C 0,2 C 9,7 km/h (2 Bft) 96,52 %
11.01.2016 06:10 0,8 C 99 % 998,1 hPa 0,0 l/m 6,8 km/h (2 Bft) NO 54 0 min 0,000 mm 0,0 UV-I 0 W/m 0,7 C 0,4 C 11,3 km/h (2 Bft) 96,58 %
11.01.2016 06:15 0,8 C 99 % 998,1 hPa 0,0 l/m 6,4 km/h (2 Bft) O-NO 59 0 min 0,000 mm 0,0 UV-I 0 W/m 0,7 C 0,8 C 9,7 km/h (2 Bft) 97,58 %
11.01.2016 06:20 0,8 C 99 % 998,3 hPa 0,0 l/m 6,1 km/h (2 Bft) O 90 0 min 0,000 mm 0,0 UV-I 0 W/m 0,7 C 0,8 C 9,7 km/h (2 Bft) 98,11 %
11.01.2016 06:25 0,8 C 99 % 998,2 hPa 0,0 l/m 3,4 km/h (1 Bft) O 93 0 min 0,000 mm 0,0 UV-I 0 W/m 0,7 C 0,8 C 8,0 km/h (2 Bft) 97,44 %
11.01.2016 06:30 0,8 C 99 % 998,1 hPa 0,0 l/m 4,1 km/h (1 Bft) O 95 0 min 0,000 mm 0,0 UV-I 0 W/m 0,7 C 0,8 C 8,0 km/h (2 Bft) 99,21 %
11.01.2016 06:35 0,7 C 99 % 997,9 hPa 0,0 l/m 5,3 km/h (1 Bft) O-NO 77 0 min 0,000 mm 0,0 UV-I 0 W/m 0,6 C 0,7 C 9,7 km/h (2 Bft) 99,07 %
11.01.2016 06:40 0,7 C 99 % 997,9 hPa 0,0 l/m 4,0 km/h (1 Bft) O 84 0 min 0,000 mm 0,0 UV-I 0 W/m 0,6 C 0,7 C 9,7 km/h (2 Bft) 100,00 %
11.01.2016 06:45 0,7 C 99 % 997,7 hPa 0,0 l/m 6,2 km/h (2 Bft) O 88 0 min 0,000 mm 0,0 UV-I 0 W/m 0,6 C 0,7 C 12,9 km/h (3 Bft) 100,00 %
11.01.2016 06:50 0,6 C 99 % 997,6 hPa 0,0 l/m 7,5 km/h (2 Bft) O 90 0 min 0,000 mm 0,0 UV-I 0 W/m 0,5 C -0,5 C 12,9 km/h (3 Bft) 99,17 %
11.01.2016 06:55 0,6 C 99 % 997,5 hPa 0,0 l/m 7,1 km/h (2 Bft) NO 55 0 min 0,000 mm 0,0 UV-I 0 W/m 0,5 C -0,1 C 11,3 km/h (2 Bft) 100,00 %
11.01.2016 07:00 0,6 C 99 % 997,5 hPa 0,0 l/m 7,9 km/h (2 Bft) O-NO 75 0 min 0,000 mm 0,0 UV-I 0 W/m 0,5 C -0,9 C 12,9 km/h (3 Bft) 99,17 %
11.01.2016 07:05 0,5 C 99 % 997,3 hPa 0,0 l/m 6,8 km/h (2 Bft) O-NO 63 0 min 0,000 mm 0,0 UV-I 0 W/m 0,4 C 0,1 C 12,9 km/h (3 Bft) 100,00 %
11.01.2016 07:10 0,5 C 99 % 997,4 hPa 0,0 l/m 9,9 km/h (2 Bft) NO 51 0 min 0,000 mm 0,0 UV-I 0 W/m 0,4 C -2,8 C 14,5 km/h (3 Bft) 99,17 %
11.01.2016 07:15 0,4 C 99 % 997,4 hPa 0,0 l/m 8,8 km/h (2 Bft) NO 56 0 min 0,000 mm 0,0 UV-I 0 W/m 0,3 C -2,0 C 12,9 km/h (3 Bft) 99,10 %
11.01.2016 07:20 0,3 C 99 % 997,3 hPa 0,0 l/m 8,2 km/h (2 Bft) O-NO 66 0 min 0,000 mm 0,0 UV-I 0 W/m 0,2 C -1,5 C 14,5 km/h (3 Bft) 100,00 %
11.01.2016 07:25 0,2 C 99 % 997,0 hPa 0,0 l/m 9,7 km/h (2 Bft) N-NO 15 0 min 0,000 mm 0,0 UV-I 0 W/m 0,1 C -3,0 C 14,5 km/h (3 Bft) 99,08 %
11.01.2016 07:30 0,2 C 99 % 997,2 hPa 0,0 l/m 10,9 km/h (2 Bft) NO 36 0 min 0,000 mm 0,0 UV-I 0 W/m 0,1 C -3,9 C 16,1 km/h (3 Bft) 99,17 %
11.01.2016 07:35 0,1 C 99 % 997,1 hPa 0,0 l/m 8,8 km/h (2 Bft) N-NO 32 0 min 0,000 mm 0,0 UV-I 0 W/m -0,0 C -2,3 C 14,5 km/h (3 Bft) 97,58 %
11.01.2016 07:40 0,1 C 99 % 996,9 hPa 0,0 l/m 10,3 km/h (2 Bft) NO 42 0 min 0,000 mm 0,0 UV-I 0 W/m -0,0 C -3,6 C 14,5 km/h (3 Bft) 100,00 %
11.01.2016 07:45 0,1 C 99 % 997,0 hPa 0,0 l/m 11,4 km/h (2 Bft) NO 42 0 min 0,000 mm 0,0 UV-I 0 W/m -0,0 C -4,4 C 17,7 km/h (3 Bft) 98,20 %
11.01.2016 07:50 0,1 C 99 % 996,9 hPa 0,0 l/m 10,5 km/h (2 Bft) N-NO 31 0 min 0,000 mm 0,0 UV-I 0 W/m -0,0 C -3,7 C 16,1 km/h (3 Bft) 97,46 %
11.01.2016 07:55 0,1 C 99 % 996,8 hPa 0,0 l/m 9,6 km/h (2 Bft) NO 44 0 min 0,000 mm 0,0 UV-I 0 W/m -0,0 C -3,0 C 14,5 km/h (3 Bft) 95,73 %
11.01.2016 08:00 0,1 C 99 % 996,6 hPa 0,0 l/m 8,5 km/h (2 Bft) N-NO 13 0 min 0,000 mm 0,0 UV-I 4 W/m -0,0 C -2,0 C 14,5 km/h (3 Bft) 96,61 %
11.01.2016 08:05 0,1 C 99 % 996,4 hPa 0,0 l/m 9,0 km/h (2 Bft) NO 41 0 min 0,000 mm 0,0 UV-I 6 W/m -0,0 C -2,5 C 14,5 km/h (3 Bft) 96,83 %
11.01.2016 08:10 0,1 C 99 % 996,1 hPa 0,0 l/m 6,8 km/h (2 Bft) NO 55 0 min 0,000 mm 0,0 UV-I 9 W/m -0,0 C -0,3 C 9,7 km/h (2 Bft) 96,19 %
11.01.2016 08:15 0,2 C 99 % 996,0 hPa 0,0 l/m 5,8 km/h (2 Bft) NO 56 0 min 0,000 mm 0,0 UV-I 11 W/m 0,1 C 0,2 C 9,7 km/h (2 Bft) 98,39 %
11.01.2016 08:20 0,3 C 99 % 996,0 hPa 0,0 l/m 7,6 km/h (2 Bft) NO 50 0 min 0,000 mm 0,0 UV-I 13 W/m 0,2 C -0,9 C 12,9 km/h (3 Bft) 97,44 %
11.01.2016 08:25 0,3 C 99 % 995,8 hPa 0,0 l/m 8,2 km/h (2 Bft) NO 38 0 min 0,000 mm 0,0 UV-I 10 W/m 0,2 C -1,5 C 14,5 km/h (3 Bft) 98,21 %
11.01.2016 08:30 0,3 C 99 % 995,7 hPa 0,0 l/m 5,6 km/h (1 Bft) O-NO 65 0 min 0,000 mm 0,0 UV-I 11 W/m 0,2 C 0,3 C 11,3 km/h (2 Bft) 100,00 %
11.01.2016 08:35 0,3 C 99 % 995,4 hPa 0,0 l/m 8,5 km/h (2 Bft) O-NO 57 0 min 0,000 mm 0,0 UV-I 12 W/m 0,2 C -1,8 C 14,5 km/h (3 Bft) 96,67 %
11.01.2016 08:40 0,3 C 99 % 995,4 hPa 0,0 l/m 8,7 km/h (2 Bft) O-NO 59 0 min 0,000 mm 0,0 UV-I 15 W/m 0,2 C -2,0 C 14,5 km/h (3 Bft) 100,00 %
11.01.2016 08:45 0,4 C 99 % 995,4 hPa 0,0 l/m 6,5 km/h (2 Bft) O-NO 58 0 min 0,000 mm 0,0 UV-I 18 W/m 0,3 C 0,3 C 9,7 km/h (2 Bft) 99,11 %
11.01.2016 08:50 0,4 C 99 % 995,3 hPa 0,0 l/m 7,3 km/h (2 Bft) O-NO 59 0 min 0,000 mm 0,0 UV-I 27 W/m 0,3 C -0,5 C 12,9 km/h (3 Bft) 99,17 %
11.01.2016 08:55 0,4 C 99 % 995,4 hPa 0,0 l/m 7,4 km/h (2 Bft) NO 56 0 min 0,000 mm 0,0 UV-I 41 W/m 0,3 C -0,6 C 12,9 km/h (3 Bft) 99,13 %
11.01.2016 09:00 0,5 C 99 % 995,0 hPa 0,0 l/m 7,1 km/h (2 Bft) N-NO 17 0 min 0,000 mm 0,0 UV-I 53 W/m 0,4 C -0,2 C 9,7 km/h (2 Bft) 100,00 %
11.01.2016 09:05 0,6 C 99 % 994,9 hPa 0,0 l/m 6,6 km/h (2 Bft) O-NO 59 0 min 0,000 mm 0,0 UV-I 55 W/m 0,5 C 0,4 C 8,0 km/h (2 Bft) 98,45 %
11.01.2016 09:10 0,6 C 99 % 994,9 hPa 0,0 l/m 4,7 km/h (1 Bft) O-NO 77 0 min 0,000 mm 0,0 UV-I 77 W/m 0,5 C 0,6 C 6,4 km/h (2 Bft) 99,11 %
11.01.2016 09:15 0,7 C 99 % 995,0 hPa 0,0 l/m 5,1 km/h (1 Bft) O-NO 63 0 min 0,000 mm 0,0 UV-I 76 W/m 0,6 C 0,7 C 8,0 km/h (2 Bft) 100,00 %
11.01.2016 09:20 0,7 C 99 % 994,9 hPa 0,0 l/m 3,7 km/h (1 Bft) O-NO 65 0 min 0,000 mm 0,0 UV-I 54 W/m 0,6 C 0,7 C 6,4 km/h (2 Bft) 99,11 %
11.01.2016 09:35 0,7 C 99 % 994,5 hPa 0,0 l/m 4,9 km/h (1 Bft) O-NO 77 0 min 0,000 mm 0,0 UV-I 40 W/m 0,6 C 0,7 C 6,4 km/h (2 Bft) 99,72 %
11.01.2016 09:40 0,7 C 99 % 994,5 hPa 0,0 l/m 3,8 km/h (1 Bft) O-NO 57 0 min 0,000 mm 0,0 UV-I 44 W/m 0,6 C 0,7 C 6,4 km/h (2 Bft) 98,35 %
11.01.2016 09:45 0,8 C 99 % 994,3 hPa 0,0 l/m 5,9 km/h (2 Bft) O-NO 76 0 min 0,000 mm 0,0 UV-I 47 W/m 0,7 C 0,8 C 9,7 km/h (2 Bft) 99,17 %
11.01.2016 09:50 0,8 C 99 % 994,4 hPa 0,0 l/m 4,6 km/h (1 Bft) N-NO 22 0 min 0,000 mm 0,0 UV-I 58 W/m 0,7 C 0,8 C 11,3 km/h (2 Bft) 97,39 %
11.01.2016 09:55 0,9 C 99 % 994,5 hPa 0,0 l/m 1,5 km/h (1 Bft) N-NO 32 0 min 0,000 mm 0,0 UV-I 61 W/m 0,8 C 0,9 C 3,2 km/h (1 Bft) 97,56 %
11.01.2016 10:00 0,9 C 99 % 994,3 hPa 0,0 l/m 3,1 km/h (1 Bft) O-NO 65 0 min 0,025 mm 0,0 UV-I 58 W/m 0,8 C 0,9 C 6,4 km/h (2 Bft) 96,33 %
11.01.2016 10:05 0,9 C 99 % 994,3 hPa 0,0 l/m 1,0 km/h (0 Bft) O-NO 65 0 min 0,000 mm 0,0 UV-I 56 W/m 0,8 C 0,9 C 3,2 km/h (1 Bft) 97,12 %
11.01.2016 10:10 1,1 C 99 % 994,3 hPa 0,0 l/m 3,4 km/h (1 Bft) NO 34 0 min 0,000 mm 0,0 UV-I 62 W/m 1,0 C 1,1 C 6,4 km/h (2 Bft) 97,62 %
11.01.2016 10:15 1,1 C 99 % 994,3 hPa 0,0 l/m 0,3 km/h (0 Bft) NO 34 0 min 0,000 mm 0,0 UV-I 63 W/m 1,0 C 1,1 C 1,6 km/h (1 Bft) 96,09 %
11.01.2016 10:20 1,3 C 99 % 994,0 hPa 0,0 l/m 3,6 km/h (1 Bft) O-NO 73 0 min 0,000 mm 0,0 UV-I 84 W/m 1,2 C 1,3 C 6,4 km/h (2 Bft) 96,33 %
11.01.2016 10:25 1,3 C 99 % 993,9 hPa 0,0 l/m 0,5 km/h (0 Bft) O-NO 73 0 min 0,000 mm 0,0 UV-I 84 W/m 1,2 C 1,3 C 3,2 km/h (1 Bft) 99,15 %
11.01.2016 10:30 1,3 C 99 % 994,2 hPa 0,0 l/m 1,7 km/h (1 Bft) W 275 0 min 0,000 mm 0,0 UV-I 69 W/m 1,2 C 1,3 C 4,8 km/h (1 Bft) 97,64 %
11.01.2016 10:35 1,4 C 99 % 994,1 hPa 0,0 l/m 1,2 km/h (1 Bft) W 275 0 min 0,000 mm 0,0 UV-I 66 W/m 1,3 C 1,4 C 4,8 km/h (1 Bft) 97,30 %
11.01.2016 10:40 1,4 C 99 % 993,6 hPa 0,0 l/m 1,4 km/h (1 Bft) S-SO 165 0 min 0,000 mm 0,0 UV-I 53 W/m 1,3 C 1,4 C 4,8 km/h (1 Bft) 100,00 %
11.01.2016 10:45 1,6 C 99 % 993,6 hPa 0,0 l/m 1,5 km/h (1 Bft) SW 229 0 min 0,000 mm 0,0 UV-I 61 W/m 1,5 C 1,6 C 6,4 km/h (2 Bft) 99,19 %
11.01.2016 10:50 1,7 C 99 % 993,8 hPa 0,0 l/m 1,8 km/h (1 Bft) NW 324 0 min 0,000 mm 0,0 UV-I 70 W/m 1,6 C 1,7 C 3,2 km/h (1 Bft) 99,15 %
11.01.2016 10:55 1,7 C 99 % 993,7 hPa 0,0 l/m 1,4 km/h (1 Bft) W-NW 303 0 min 0,000 mm 0,0 UV-I 65 W/m 1,6 C 1,7 C 4,8 km/h (1 Bft) 99,11 %
11.01.2016 11:00 1,7 C 99 % 993,7 hPa 0,0 l/m 1,7 km/h (1 Bft) W-NW 288 0 min 0,026 mm 0,0 UV-I 48 W/m 1,6 C 1,7 C 3,2 km/h (1 Bft) 97,50 %
11.01.2016 11:05 1,7 C 99 % 993,8 hPa 0,0 l/m 0,8 km/h (0 Bft) W-NW 288 0 min 0,000 mm 0,0 UV-I 38 W/m 1,6 C 1,7 C 3,2 km/h (1 Bft) 99,11 %
11.01.2016 11:10 1,8 C 99 % 993,9 hPa 0,0 l/m 2,6 km/h (1 Bft) W 271 0 min 0,000 mm 0,0 UV-I 26 W/m 1,7 C 1,8 C 4,8 km/h (1 Bft) 99,13 %
11.01.2016 11:15 1,9 C 99 % 993,9 hPa 0,0 l/m 4,1 km/h (1 Bft) W 270 0 min 0,000 mm 0,0 UV-I 32 W/m 1,8 C 1,9 C 9,7 km/h (2 Bft) 100,00 %
11.01.2016 11:20 1,8 C 99 % 993,8 hPa 0,0 l/m 1,5 km/h (1 Bft) W-SW 237 0 min 0,000 mm 0,0 UV-I 47 W/m 1,7 C 1,8 C 4,8 km/h (1 Bft) 100,00 %
11.01.2016 11:25 1,9 C 99 % 993,9 hPa 0,0 l/m 4,5 km/h (1 Bft) W 276 0 min 0,000 mm 0,0 UV-I 46 W/m 1,8 C 1,9 C 9,7 km/h (2 Bft) 97,46 %
11.01.2016 11:30 1,9 C 99 % 994,2 hPa 0,0 l/m 2,8 km/h (1 Bft) W-SW 244 0 min 0,000 mm 0,0 UV-I 45 W/m 1,8 C 1,9 C 8,0 km/h (2 Bft) 97,62 %
11.01.2016 11:35 2,1 C 99 % 994,3 hPa 0,0 l/m 6,7 km/h (2 Bft) W-SW 238 0 min 0,000 mm 0,0 UV-I 31 W/m 2,0 C 1,8 C 11,3 km/h (2 Bft) 99,15 %
11.01.2016 11:40 2,0 C 99 % 993,9 hPa 0,2 l/m 7,9 km/h (2 Bft) S 173 0 min 0,000 mm 0,0 UV-I 28 W/m 1,9 C 0,5 C 14,5 km/h (3 Bft) 100,00 %
11.01.2016 11:45 1,9 C 99 % 993,8 hPa 0,0 l/m 3,5 km/h (1 Bft) W-SW 254 0 min 0,000 mm 0,0 UV-I 37 W/m 1,8 C 1,9 C 11,3 km/h (2 Bft) 100,00 %
11.01.2016 11:50 2,0 C 99 % 994,0 hPa 0,0 l/m 5,6 km/h (1 Bft) W-SW 252 0 min 0,000 mm 0,0 UV-I 31 W/m 1,9 C 2,0 C 11,3 km/h (2 Bft) 100,00 %
11.01.2016 11:55 2,0 C 99 % 994,1 hPa 0,0 l/m 5,6 km/h (1 Bft) W 265 0 min 0,000 mm 0,0 UV-I 28 W/m 1,9 C 2,0 C 11,3 km/h (2 Bft) 97,56 %
11.01.2016 12:00 2,1 C 99 % 994,1 hPa 0,0 l/m 7,9 km/h (2 Bft) W-SW 240 0 min 0,025 mm 0,0 UV-I 30 W/m 2,0 C 0,7 C 14,5 km/h (3 Bft) 97,39 %
11.01.2016 12:05 2,1 C 99 % 994,2 hPa 0,0 l/m 7,6 km/h (2 Bft) S-SW 211 0 min 0,000 mm 0,0 UV-I 24 W/m 2,0 C 0,9 C 12,9 km/h (3 Bft) 97,32 %
11.01.2016 12:10 2,0 C 99 % 994,4 hPa 0,2 l/m 11,2 km/h (2 Bft) S-SW 197 0 min 0,000 mm 0,0 UV-I 21 W/m 1,9 C -2,1 C 19,3 km/h (3 Bft) 96,58 %
11.01.2016 12:15 1,9 C 99 % 994,2 hPa 0,0 l/m 12,6 km/h (3 Bft) S-SW 205 0 min 0,000 mm 0,0 UV-I 18 W/m 1,8 C -3,2 C 20,9 km/h (4 Bft) 96,85 %
11.01.2016 12:20 1,9 C 99 % 993,9 hPa 0,2 l/m 12,4 km/h (3 Bft) S 169 0 min 0,000 mm 0,0 UV-I 19 W/m 1,8 C -3,1 C 22,5 km/h (4 Bft) 96,43 %
11.01.2016 12:25 1,9 C 99 % 993,6 hPa 0,0 l/m 8,9 km/h (2 Bft) S 171 0 min 0,000 mm 0,0 UV-I 19 W/m 1,8 C -0,5 C 17,7 km/h (3 Bft) 96,67 %
11.01.2016 12:30 1,9 C 99 % 993,5 hPa 0,2 l/m 15,1 km/h (3 Bft) SO 146 0 min 0,000 mm 0,0 UV-I 26 W/m 1,8 C -4,7 C 32,2 km/h (5 Bft) 98,21 %
11.01.2016 12:35 1,9 C 99 % 993,6 hPa 0,2 l/m 14,4 km/h (3 Bft) S-SO 167 0 min 0,000 mm 0,0 UV-I 29 W/m 1,8 C -4,3 C 24,1 km/h (4 Bft) 98,36 %
11.01.2016 12:40 2,1 C 99 % 993,2 hPa 0,0 l/m 9,2 km/h (2 Bft) S 183 0 min 0,000 mm 0,0 UV-I 38 W/m 2,0 C -0,5 C 22,5 km/h (4 Bft) 100,00 %
11.01.2016 12:45 2,2 C 99 % 993,4 hPa 0,0 l/m 12,2 km/h (2 Bft) S 184 0 min 0,000 mm 0,0 UV-I 46 W/m 2,1 C -2,6 C 29,0 km/h (5 Bft) 99,11 %
11.01.2016 12:50 2,3 C 99 % 993,5 hPa 0,2 l/m 10,5 km/h (2 Bft) SW 220 0 min 0,000 mm 0,0 UV-I 43 W/m 2,2 C -1,3 C 19,3 km/h (3 Bft) 99,12 %
11.01.2016 12:55 2,4 C 99 % 993,3 hPa 0,0 l/m 8,6 km/h (2 Bft) S-SW 194 0 min 0,000 mm 0,0 UV-I 36 W/m 2,3 C 0,3 C 17,7 km/h (3 Bft) 98,31 %
11.01.2016 13:00 2,5 C 99 % 993,3 hPa 0,2 l/m 6,1 km/h (2 Bft) SW 228 0 min 0,000 mm 0,0 UV-I 33 W/m 2,4 C 2,5 C 11,3 km/h (2 Bft) 100,00 %
11.01.2016 13:05 2,6 C 99 % 993,0 hPa 0,0 l/m 5,5 km/h (1 Bft) S-SW 194 0 min 0,000 mm 0,0 UV-I 27 W/m 2,5 C 2,6 C 12,9 km/h (3 Bft) 99,15 %
11.01.2016 13:10 2,7 C 99 % 993,1 hPa 0,0 l/m 4,6 km/h (1 Bft) S-SW 198 0 min 0,000 mm 0,0 UV-I 26 W/m 2,6 C 2,7 C 9,7 km/h (2 Bft) 98,39 %
11.01.2016 13:15 2,7 C 99 % 993,1 hPa 0,2 l/m 4,2 km/h (1 Bft) S 182 0 min 0,000 mm 0,0 UV-I 25 W/m 2,6 C 2,7 C 8,0 km/h (2 Bft) 99,15 %
11.01.2016 13:20 2,8 C 99 % 993,0 hPa 0,2 l/m 4,1 km/h (1 Bft) S-SW 207 0 min 0,000 mm 0,0 UV-I 23 W/m 2,7 C 2,8 C 11,3 km/h (2 Bft) 99,13 %
11.01.2016 13:25 2,9 C 99 % 993,0 hPa 0,0 l/m 3,2 km/h (1 Bft) S 172 0 min 0,000 mm 0,0 UV-I 19 W/m 2,8 C 2,9 C 6,4 km/h (2 Bft) 99,15 %
11.01.2016 13:30 3,0 C 99 % 992,9 hPa 0,2 l/m 2,2 km/h (1 Bft) S 186 0 min 0,000 mm 0,0 UV-I 19 W/m 2,9 C 3,0 C 4,8 km/h (1 Bft) 100,00 %
11.01.2016 13:35 3,1 C 99 % 992,7 hPa 0,2 l/m 3,5 km/h (1 Bft) S-SO 150 0 min 0,000 mm 0,0 UV-I 20 W/m 3,0 C 3,1 C 8,0 km/h (2 Bft) 100,00 %
11.01.2016 13:40 3,1 C 99 % 992,6 hPa 0,2 l/m 3,9 km/h (1 Bft) S-SO 165 0 min 0,000 mm 0,0 UV-I 22 W/m 3,0 C 3,1 C 8,0 km/h (2 Bft) 100,00 %
11.01.2016 13:45 3,1 C 99 % 992,3 hPa 0,2 l/m 3,7 km/h (1 Bft) SO 144 0 min 0,000 mm 0,0 UV-I 22 W/m 3,0 C 3,1 C 8,0 km/h (2 Bft) 98,33 %
11.01.2016 13:50 3,1 C 99 % 992,2 hPa 0,0 l/m 4,8 km/h (1 Bft) SO 140 0 min 0,000 mm 0,0 UV-I 20 W/m 3,0 C 3,1 C 9,7 km/h (2 Bft) 99,15 %
11.01.2016 13:55 3,2 C 99 % 992,1 hPa 0,2 l/m 4,0 km/h (1 Bft) S 173 0 min 0,000 mm 0,0 UV-I 18 W/m 3,1 C 3,2 C 8,0 km/h (2 Bft) 98,33 %
11.01.2016 14:00 3,3 C 99 % 992,2 hPa 0,0 l/m 3,8 km/h (1 Bft) S-SW 199 0 min 0,000 mm 0,0 UV-I 16 W/m 3,2 C 3,3 C 8,0 km/h (2 Bft) 96,52 %
11.01.2016 14:05 3,4 C 99 % 992,2 hPa 0,2 l/m 3,5 km/h (1 Bft) S-SO 150 0 min 0,000 mm 0,0 UV-I 15 W/m 3,3 C 3,4 C 8,0 km/h (2 Bft) 97,41 %
11.01.2016 14:10 3,6 C 99 % 992,0 hPa 0,0 l/m 2,7 km/h (1 Bft) S 169 0 min 0,000 mm 0,0 UV-I 16 W/m 3,5 C 3,6 C 6,4 km/h (2 Bft) 95,83 %
11.01.2016 14:15 3,6 C 99 % 992,0 hPa 0,0 l/m 2,1 km/h (1 Bft) S-SO 154 0 min 0,000 mm 0,0 UV-I 16 W/m 3,5 C 3,6 C 3,2 km/h (1 Bft) 98,46 %
11.01.2016 14:25 3,8 C 99 % 992,0 hPa 0,2 l/m 1,7 km/h (1 Bft) S-SO 162 0 min 0,000 mm 0,0 UV-I 14 W/m 3,7 C 3,8 C 3,2 km/h (1 Bft) 97,44 %
11.01.2016 14:30 3,6 C 99 % 991,9 hPa 0,0 l/m 1,9 km/h (1 Bft) N-NO 20 0 min 0,000 mm 0,0 UV-I 11 W/m 3,5 C 3,6 C 4,8 km/h (1 Bft) 98,35 %
11.01.2016 14:35 3,6 C 99 % 992,0 hPa 0,0 l/m 6,1 km/h (2 Bft) NO 34 0 min 0,000 mm 0,0 UV-I 11 W/m 3,5 C 3,6 C 8,0 km/h (2 Bft) 98,15 %
11.01.2016 14:40 3,4 C 99 % 992,1 hPa 0,0 l/m 4,7 km/h (1 Bft) NW 323 0 min 0,000 mm 0,0 UV-I 11 W/m 3,3 C 3,4 C 12,9 km/h (3 Bft) 100,00 %
11.01.2016 14:45 3,4 C 99 % 992,2 hPa 0,0 l/m 1,3 km/h (1 Bft) N 5 0 min 0,000 mm 0,0 UV-I 11 W/m 3,3 C 3,4 C 4,8 km/h (1 Bft) 98,43 %
11.01.2016 14:50 3,3 C 99 % 992,2 hPa 0,0 l/m 0,7 km/h (0 Bft) N 9 0 min 0,000 mm 0,0 UV-I 11 W/m 3,2 C 3,3 C 3,2 km/h (1 Bft) 100,00 %
11.01.2016 14:55 3,2 C 99 % 992,4 hPa 0,2 l/m 1,1 km/h (1 Bft) N-NO 13 0 min 0,000 mm 0,0 UV-I 11 W/m 3,1 C 3,2 C 4,8 km/h (1 Bft) 96,77 %
11.01.2016 15:00 3,2 C 99 % 992,4 hPa 0,0 l/m 1,3 km/h (1 Bft) NO 34 0 min 0,000 mm 0,0 UV-I 8 W/m 3,1 C 3,2 C 6,4 km/h (2 Bft) 99,13 %
11.01.2016 15:05 3,1 C 99 % 992,7 hPa 0,4 l/m 1,0 km/h (0 Bft) N-NW 348 0 min 0,000 mm 0,0 UV-I 7 W/m 3,0 C 3,1 C 3,2 km/h (1 Bft) 99,10 %
11.01.2016 15:10 3,1 C 99 % 992,8 hPa 0,0 l/m 1,2 km/h (1 Bft) N-NO 16 0 min 0,000 mm 0,0 UV-I 7 W/m 3,0 C 3,1 C 3,2 km/h (1 Bft) 100,00 %
11.01.2016 15:15 3,2 C 99 % 992,9 hPa 0,2 l/m 0,4 km/h (0 Bft) N-NO 16 0 min 0,000 mm 0,0 UV-I 7 W/m 3,1 C 3,2 C 3,2 km/h (1 Bft) 100,00 %
11.01.2016 15:20 3,1 C 99 % 992,8 hPa 0,0 l/m 1,1 km/h (1 Bft) S-SO 150 0 min 0,000 mm 0,0 UV-I 7 W/m 3,0 C 3,1 C 4,8 km/h (1 Bft) 100,00 %
11.01.2016 15:25 3,2 C 99 % 992,8 hPa 0,2 l/m 0,4 km/h (0 Bft) S-SO 150 0 min 0,000 mm 0,0 UV-I 6 W/m 3,1 C 3,2 C 3,2 km/h (1 Bft) 100,00 %
11.01.2016 15:30 3,2 C 99 % 992,9 hPa 0,0 l/m 0,3 km/h (0 Bft) SW 224 0 min 0,000 mm 0,0 UV-I 5 W/m 3,1 C 3,2 C 3,2 km/h (1 Bft) 100,00 %
11.01.2016 15:35 3,1 C 99 % 993,1 hPa 0,0 l/m 0,5 km/h (0 Bft) W-SW 256 0 min 0,000 mm 0,0 UV-I 5 W/m 3,0 C 3,1 C 3,2 km/h (1 Bft) 100,00 %
11.01.2016 15:40 3,1 C 99 % 993,1 hPa 0,2 l/m 1,7 km/h (1 Bft) S-SO 147 0 min 0,000 mm 0,0 UV-I 5 W/m 3,0 C 3,1 C 4,8 km/h (1 Bft) 98,37 %
11.01.2016 15:45 3,3 C 99 % 993,1 hPa 0,0 l/m 2,7 km/h (1 Bft) S-SO 168 0 min 0,000 mm 0,0 UV-I 4 W/m 3,2 C 3,3 C 9,7 km/h (2 Bft) 99,15 %
11.01.2016 15:50 3,9 C 99 % 993,3 hPa 0,2 l/m 7,0 km/h (2 Bft) SW 215 0 min 0,000 mm 0,0 UV-I 4 W/m 3,8 C 3,4 C 12,9 km/h (3 Bft) 100,00 %
11.01.2016 15:55 4,3 C 99 % 993,3 hPa 0,0 l/m 9,6 km/h (2 Bft) W-SW 246 0 min 0,000 mm 0,0 UV-I 0 W/m 4,2 C 1,6 C 27,4 km/h (4 Bft) 100,00 %
11.01.2016 16:00 5,1 C 99 % 993,4 hPa 0,2 l/m 17,1 km/h (3 Bft) S 183 0 min 0,000 mm 0,0 UV-I 5 W/m 5,0 C -1,8 C 37,0 km/h (5 Bft) 96,90 %
11.01.2016 16:05 5,5 C 99 % 993,4 hPa 0,2 l/m 17,7 km/h (3 Bft) SW 215 0 min 0,000 mm 0,0 UV-I 2 W/m 5,4 C -1,6 C 40,2 km/h (6 Bft) 96,52 %
11.01.2016 16:10 5,8 C 99 % 993,5 hPa 0,0 l/m 21,6 km/h (4 Bft) SW 229 0 min 0,000 mm 0,0 UV-I 0 W/m 5,7 C -2,7 C 38,6 km/h (5 Bft) 98,29 %
11.01.2016 16:15 5,9 C 99 % 993,5 hPa 0,2 l/m 18,5 km/h (3 Bft) SW 217 0 min 0,000 mm 0,0 UV-I 0 W/m 5,8 C -1,4 C 35,4 km/h (5 Bft) 97,39 %
11.01.2016 16:20 5,9 C 99 % 993,5 hPa 0,0 l/m 19,8 km/h (3 Bft) S-SW 207 0 min 0,000 mm 0,0 UV-I 0 W/m 5,8 C -1,9 C 35,4 km/h (5 Bft) 96,33 %
11.01.2016 16:25 6,0 C 99 % 993,7 hPa 0,0 l/m 18,8 km/h (3 Bft) W-SW 242 0 min 0,000 mm 0,0 UV-I 0 W/m 5,9 C -1,4 C 30,6 km/h (5 Bft) 95,16 %
11.01.2016 16:30 5,9 C 99 % 993,6 hPa 0,2 l/m 19,1 km/h (3 Bft) SW 221 0 min 0,000 mm 0,0 UV-I 0 W/m 5,8 C -1,7 C 38,6 km/h (5 Bft) 96,43 %
11.01.2016 16:35 5,9 C 99 % 993,6 hPa 0,0 l/m 19,3 km/h (3 Bft) SW 231 0 min 0,000 mm 0,0 UV-I 0 W/m 5,8 C -1,7 C 32,2 km/h (5 Bft) 95,93 %
11.01.2016 16:40 5,9 C 99 % 993,6 hPa 0,0 l/m 18,8 km/h (3 Bft) W 259 0 min 0,000 mm 0,0 UV-I 0 W/m 5,8 C -1,5 C 29,0 km/h (5 Bft) 100,00 %
11.01.2016 16:50 5,8 C 98 % 994,0 hPa 0,4 l/m 21,0 km/h (4 Bft) S-SW 192 0 min 0,000 mm 0,0 UV-I 0 W/m 5,5 C -2,5 C 37,0 km/h (5 Bft) 99,34 %
11.01.2016 16:55 5,8 C 98 % 994,2 hPa 0,0 l/m 18,6 km/h (3 Bft) S-SW 209 0 min 0,000 mm 0,0 UV-I 0 W/m 5,5 C -1,6 C 29,0 km/h (5 Bft) 99,15 %
11.01.2016 17:00 5,8 C 98 % 994,3 hPa 0,0 l/m 19,8 km/h (3 Bft) SW 214 0 min 0,000 mm 0,0 UV-I 0 W/m 5,5 C -2,1 C 30,6 km/h (5 Bft) 99,08 %
11.01.2016 17:05 5,7 C 97 % 994,3 hPa 0,2 l/m 22,4 km/h (4 Bft) S-SW 205 0 min 0,000 mm 0,0 UV-I 0 W/m 5,3 C -3,1 C 32,2 km/h (5 Bft) 100,00 %
11.01.2016 17:10 5,6 C 97 % 994,3 hPa 0,0 l/m 19,6 km/h (3 Bft) SW 223 0 min 0,000 mm 0,0 UV-I 0 W/m 5,2 C -2,2 C 37,0 km/h (5 Bft) 98,17 %
11.01.2016 17:15 5,6 C 97 % 994,1 hPa 0,2 l/m 17,8 km/h (3 Bft) S 174 0 min 0,000 mm 0,0 UV-I 0 W/m 5,2 C -1,5 C 35,4 km/h (5 Bft) 97,17 %
11.01.2016 17:20 5,5 C 97 % 993,9 hPa 0,0 l/m 17,5 km/h (3 Bft) S-SW 205 0 min 0,000 mm 0,0 UV-I 0 W/m 5,1 C -1,5 C 29,0 km/h (5 Bft) 100,00 %
11.01.2016 17:25 5,5 C 97 % 993,9 hPa 0,0 l/m 15,2 km/h (3 Bft) S 190 0 min 0,000 mm 0,0 UV-I 0 W/m 5,1 C -0,4 C 24,1 km/h (4 Bft) 100,00 %
11.01.2016 17:30 5,5 C 97 % 993,9 hPa 0,0 l/m 18,5 km/h (3 Bft) S 183 0 min 0,000 mm 0,0 UV-I 0 W/m 5,1 C -1,9 C 32,2 km/h (5 Bft) 99,15 %
11.01.2016 17:35 5,6 C 96 % 993,7 hPa 0,0 l/m 23,7 km/h (4 Bft) S-SW 200 0 min 0,000 mm 0,0 UV-I 0 W/m 5,0 C -3,7 C 41,8 km/h (6 Bft) 100,00 %
11.01.2016 17:40 5,6 C 95 % 993,7 hPa 0,0 l/m 23,8 km/h (4 Bft) S-SW 204 0 min 0,000 mm 0,0 UV-I 0 W/m 4,9 C -3,7 C 40,2 km/h (6 Bft) 99,17 %
11.01.2016 17:45 5,6 C 94 % 993,8 hPa 0,0 l/m 21,1 km/h (4 Bft) SW 223 0 min 0,000 mm 0,0 UV-I 0 W/m 4,7 C -2,8 C 38,6 km/h (5 Bft) 99,15 %
11.01.2016 17:50 5,7 C 94 % 993,8 hPa 0,0 l/m 21,9 km/h (4 Bft) SW 222 0 min 0,000 mm 0,0 UV-I 0 W/m 4,8 C -3,0 C 40,2 km/h (6 Bft) 100,00 %
11.01.2016 17:55 5,7 C 94 % 993,8 hPa 0,0 l/m 20,7 km/h (4 Bft) S-SW 193 0 min 0,000 mm 0,0 UV-I 0 W/m 4,8 C -2,5 C 37,0 km/h (5 Bft) 99,15 %
11.01.2016 18:00 5,7 C 93 % 993,8 hPa 0,0 l/m 18,8 km/h (3 Bft) SW 217 0 min 0,000 mm 0,0 UV-I 0 W/m 4,7 C -1,8 C 30,6 km/h (5 Bft) 100,00 %
11.01.2016 18:05 5,6 C 93 % 993,8 hPa 0,2 l/m 19,6 km/h (3 Bft) SW 219 0 min 0,000 mm 0,0 UV-I 0 W/m 4,6 C -2,2 C 35,4 km/h (5 Bft) 98,31 %
11.01.2016 18:10 5,6 C 93 % 993,7 hPa 0,0 l/m 17,8 km/h (3 Bft) S-SW 205 0 min 0,000 mm 0,0 UV-I 0 W/m 4,6 C -1,5 C 29,0 km/h (5 Bft) 95,61 %
11.01.2016 18:15 5,6 C 93 % 994,0 hPa 0,0 l/m 18,0 km/h (3 Bft) SW 217 0 min 0,000 mm 0,0 UV-I 0 W/m 4,6 C -1,6 C 30,6 km/h (5 Bft) 97,46 %
11.01.2016 18:20 5,7 C 92 % 994,1 hPa 0,0 l/m 22,2 km/h (4 Bft) SW 215 0 min 0,000 mm 0,0 UV-I 0 W/m 4,5 C -3,1 C 37,0 km/h (5 Bft) 97,52 %
11.01.2016 18:25 5,8 C 91 % 994,2 hPa 0,0 l/m 22,2 km/h (4 Bft) S-SW 194 0 min 0,000 mm 0,0 UV-I 0 W/m 4,4 C -2,9 C 37,0 km/h (5 Bft) 97,37 %
11.01.2016 18:30 5,9 C 91 % 994,5 hPa 0,0 l/m 20,7 km/h (4 Bft) S-SW 205 0 min 0,000 mm 0,0 UV-I 0 W/m 4,5 C -2,3 C 35,4 km/h (5 Bft) 96,06 %
11.01.2016 18:35 5,9 C 90 % 994,3 hPa 0,0 l/m 19,2 km/h (3 Bft) SW 227 0 min 0,000 mm 0,0 UV-I 0 W/m 4,4 C -1,7 C 32,2 km/h (5 Bft) 97,32 %
11.01.2016 18:40 5,9 C 90 % 994,1 hPa 0,0 l/m 13,4 km/h (3 Bft) W-SW 254 0 min 0,000 mm 0,0 UV-I 0 W/m 4,4 C 1,0 C 27,4 km/h (4 Bft) 96,49 %
11.01.2016 18:45 5,8 C 90 % 994,5 hPa 0,0 l/m 16,1 km/h (3 Bft) SW 227 0 min 0,000 mm 0,0 UV-I 0 W/m 4,3 C -0,5 C 29,0 km/h (5 Bft) 98,31 %
11.01.2016 18:50 5,9 C 90 % 994,4 hPa 0,0 l/m 20,5 km/h (4 Bft) S-SW 210 0 min 0,000 mm 0,0 UV-I 0 W/m 4,4 C -2,2 C 35,4 km/h (5 Bft) 100,00 %
11.01.2016 18:55 5,9 C 90 % 994,2 hPa 0,0 l/m 19,1 km/h (3 Bft) S 188 0 min 0,000 mm 0,0 UV-I 0 W/m 4,4 C -1,7 C 33,8 km/h (5 Bft) 98,21 %
11.01.2016 19:00 5,8 C 90 % 994,1 hPa 0,0 l/m 16,8 km/h (3 Bft) S-SW 207 0 min 0,026 mm 0,0 UV-I 0 W/m 4,3 C -0,8 C 27,4 km/h (4 Bft) 97,46 %
11.01.2016 19:05 5,8 C 90 % 994,3 hPa 0,0 l/m 16,5 km/h (3 Bft) SW 214 0 min 0,000 mm 0,0 UV-I 0 W/m 4,3 C -0,7 C 29,0 km/h (5 Bft) 99,19 %
11.01.2016 19:10 5,9 C 89 % 994,2 hPa 0,0 l/m 16,0 km/h (3 Bft) S-SW 201 0 min 0,000 mm 0,0 UV-I 0 W/m 4,2 C -0,3 C 30,6 km/h (5 Bft) 99,11 %
11.01.2016 19:15 5,9 C 89 % 994,3 hPa 0,0 l/m 14,9 km/h (3 Bft) S-SO 168 0 min 0,000 mm 0,0 UV-I 0 W/m 4,2 C 0,2 C 27,4 km/h (4 Bft) 99,15 %
11.01.2016 19:20 5,9 C 89 % 994,1 hPa 0,0 l/m 14,6 km/h (3 Bft) S-SW 202 0 min 0,000 mm 0,0 UV-I 0 W/m 4,2 C 0,4 C 29,0 km/h (5 Bft) 100,00 %
11.01.2016 19:25 5,9 C 89 % 994,1 hPa 0,0 l/m 14,0 km/h (3 Bft) S 180 0 min 0,000 mm 0,0 UV-I 0 W/m 4,2 C 0,7 C 25,7 km/h (4 Bft) 100,00 %
11.01.2016 19:30 6,0 C 89 % 993,9 hPa 0,0 l/m 15,2 km/h (3 Bft) S-SW 196 0 min 0,000 mm 0,0 UV-I 0 W/m 4,3 C 0,2 C 27,4 km/h (4 Bft) 100,00 %
11.01.2016 19:35 6,0 C 89 % 994,0 hPa 0,0 l/m 17,7 km/h (3 Bft) S 173 0 min 0,000 mm 0,0 UV-I 0 W/m 4,3 C -1,0 C 29,0 km/h (5 Bft) 99,08 %
11.01.2016 19:40 6,1 C 89 % 994,0 hPa 0,0 l/m 15,5 km/h (3 Bft) S-SW 209 0 min 0,000 mm 0,0 UV-I 0 W/m 4,4 C 0,2 C 27,4 km/h (4 Bft) 99,11 %
11.01.2016 19:45 6,0 C 88 % 994,2 hPa 0,0 l/m 15,1 km/h (3 Bft) SW 218 0 min 0,000 mm 0,0 UV-I 0 W/m 4,2 C 0,2 C 27,4 km/h (4 Bft) 100,00 %
11.01.2016 19:50 6,0 C 89 % 994,2 hPa 0,0 l/m 13,3 km/h (3 Bft) SW 233 0 min 0,000 mm 0,0 UV-I 0 W/m 4,3 C 1,2 C 22,5 km/h (4 Bft) 99,03 %
11.01.2016 19:55 6,0 C 88 % 994,0 hPa 0,0 l/m 11,6 km/h (2 Bft) S-SW 206 0 min 0,000 mm 0,0 UV-I 0 W/m 4,2 C 2,1 C 17,7 km/h (3 Bft) 99,28 %
11.01.2016 20:00 5,9 C 88 % 994,0 hPa 0,0 l/m 11,1 km/h (2 Bft) S-SW 201 0 min 0,025 mm 0,0 UV-I 0 W/m 4,1 C 2,3 C 17,7 km/h (3 Bft) 99,11 %
11.01.2016 20:05 5,9 C 88 % 993,8 hPa 0,0 l/m 9,6 km/h (2 Bft) S-SW 205 0 min 0,000 mm 0,0 UV-I 0 W/m 4,1 C 3,3 C 17,7 km/h (3 Bft) 100,00 %
11.01.2016 20:10 5,9 C 88 % 993,6 hPa 0,0 l/m 10,8 km/h (2 Bft) S-SW 209 0 min 0,000 mm 0,0 UV-I 0 W/m 4,1 C 2,5 C 17,7 km/h (3 Bft) 98,29 %
11.01.2016 20:15 6,0 C 87 % 993,5 hPa 0,0 l/m 11,5 km/h (2 Bft) S-SW 208 0 min 0,000 mm 0,0 UV-I 0 W/m 4,0 C 2,2 C 17,7 km/h (3 Bft) 95,76 %
11.01.2016 20:20 5,9 C 88 % 993,4 hPa 0,0 l/m 11,8 km/h (2 Bft) SW 215 0 min 0,000 mm 0,0 UV-I 0 W/m 4,1 C 1,9 C 17,7 km/h (3 Bft) 96,43 %
11.01.2016 20:25 5,9 C 88 % 993,4 hPa 0,0 l/m 8,3 km/h (2 Bft) S-SW 209 0 min 0,000 mm 0,0 UV-I 0 W/m 4,1 C 4,3 C 17,7 km/h (3 Bft) 95,93 %
11.01.2016 20:30 5,8 C 88 % 993,4 hPa 0,0 l/m 8,2 km/h (2 Bft) S-SW 197 0 min 0,000 mm 0,0 UV-I 0 W/m 4,0 C 4,3 C 17,7 km/h (3 Bft) 98,17 %
11.01.2016 20:35 5,8 C 88 % 993,7 hPa 0,0 l/m 10,5 km/h (2 Bft) W-SW 248 0 min 0,000 mm 0,0 UV-I 0 W/m 4,0 C 2,6 C 17,7 km/h (3 Bft) 97,67 %
11.01.2016 20:40 5,8 C 88 % 993,8 hPa 0,0 l/m 14,1 km/h (3 Bft) SW 223 0 min 0,000 mm 0,0 UV-I 0 W/m 4,0 C 0,5 C 24,1 km/h (4 Bft) 97,17 %
11.01.2016 20:45 6,0 C 87 % 993,9 hPa 0,0 l/m 16,1 km/h (3 Bft) S-SW 210 0 min 0,000 mm 0,0 UV-I 0 W/m 4,0 C -0,2 C 27,4 km/h (4 Bft) 96,61 %
11.01.2016 20:50 6,1 C 86 % 993,7 hPa 0,0 l/m 15,5 km/h (3 Bft) S 190 0 min 0,000 mm 0,0 UV-I 0 W/m 3,9 C 0,2 C 25,7 km/h (4 Bft) 97,56 %
11.01.2016 20:55 6,2 C 84 % 993,6 hPa 0,0 l/m 17,0 km/h (3 Bft) SW 225 0 min 0,000 mm 0,0 UV-I 0 W/m 3,7 C -0,4 C 27,4 km/h (4 Bft) 99,15 %
11.01.2016 21:00 6,3 C 83 % 993,4 hPa 0,0 l/m 16,6 km/h (3 Bft) W 260 0 min 0,025 mm 0,0 UV-I 0 W/m 3,6 C -0,1 C 29,0 km/h (5 Bft) 99,11 %
11.01.2016 21:05 6,3 C 83 % 993,3 hPa 0,0 l/m 16,6 km/h (3 Bft) W-SW 254 0 min 0,000 mm 0,0 UV-I 0 W/m 3,6 C -0,1 C 27,4 km/h (4 Bft) 99,15 %
11.01.2016 21:10 6,2 C 84 % 993,2 hPa 0,0 l/m 13,1 km/h (3 Bft) W-SW 238 0 min 0,000 mm 0,0 UV-I 0 W/m 3,7 C 1,5 C 19,3 km/h (3 Bft) 97,52 %
11.01.2016 21:15 5,9 C 85 % 993,0 hPa 0,0 l/m 12,7 km/h (3 Bft) W-SW 254 0 min 0,000 mm 0,0 UV-I 0 W/m 3,6 C 1,4 C 19,3 km/h (3 Bft) 100,00 %
11.01.2016 21:20 5,8 C 85 % 993,0 hPa 0,0 l/m 11,6 km/h (2 Bft) SW 234 0 min 0,000 mm 0,0 UV-I 0 W/m 3,5 C 1,9 C 19,3 km/h (3 Bft) 99,19 %
11.01.2016 21:25 5,7 C 85 % 993,2 hPa 0,0 l/m 12,9 km/h (3 Bft) S-SW 210 0 min 0,000 mm 0,0 UV-I 0 W/m 3,4 C 1,0 C 19,3 km/h (3 Bft) 98,31 %
11.01.2016 21:30 5,8 C 84 % 993,3 hPa 0,0 l/m 11,6 km/h (2 Bft) S-SW 198 0 min 0,000 mm 0,0 UV-I 0 W/m 3,3 C 1,9 C 17,7 km/h (3 Bft) 98,25 %
11.01.2016 21:35 5,7 C 85 % 993,3 hPa 0,0 l/m 13,3 km/h (3 Bft) SW 223 0 min 0,000 mm 0,0 UV-I 0 W/m 3,4 C 0,8 C 19,3 km/h (3 Bft) 100,00 %
11.01.2016 21:40 5,7 C 85 % 993,4 hPa 0,0 l/m 11,8 km/h (2 Bft) SW 227 0 min 0,000 mm 0,0 UV-I 0 W/m 3,4 C 1,7 C 19,3 km/h (3 Bft) 99,13 %
11.01.2016 21:45 5,6 C 86 % 993,4 hPa 0,0 l/m 13,9 km/h (3 Bft) W-SW 252 0 min 0,000 mm 0,0 UV-I 0 W/m 3,4 C 0,4 C 20,9 km/h (4 Bft) 100,00 %
11.01.2016 21:50 5,5 C 86 % 993,5 hPa 0,0 l/m 15,0 km/h (3 Bft) S-SW 212 0 min 0,000 mm 0,0 UV-I 0 W/m 3,3 C -0,3 C 24,1 km/h (4 Bft) 100,00 %
11.01.2016 21:55 5,6 C 86 % 993,5 hPa 0,0 l/m 10,6 km/h (2 Bft) S-SO 163 0 min 0,000 mm 0,0 UV-I 0 W/m 3,4 C 2,3 C 17,7 km/h (3 Bft) 99,11 %
11.01.2016 22:00 5,5 C 86 % 993,4 hPa 0,0 l/m 8,9 km/h (2 Bft) SW 214 0 min 0,026 mm 0,0 UV-I 0 W/m 3,3 C 3,4 C 16,1 km/h (3 Bft) 100,00 %
11.01.2016 22:05 5,5 C 86 % 993,5 hPa 0,0 l/m 10,6 km/h (2 Bft) S-SW 200 0 min 0,000 mm 0,0 UV-I 0 W/m 3,3 C 2,2 C 16,1 km/h (3 Bft) 98,31 %
11.01.2016 22:10 5,5 C 86 % 993,6 hPa 0,0 l/m 11,5 km/h (2 Bft) S-SW 202 0 min 0,000 mm 0,0 UV-I 0 W/m 3,3 C 1,6 C 20,9 km/h (4 Bft) 99,19 %
11.01.2016 22:15 5,5 C 86 % 993,7 hPa 0,0 l/m 12,7 km/h (3 Bft) S-SW 212 0 min 0,000 mm 0,0 UV-I 0 W/m 3,3 C 0,9 C 19,3 km/h (3 Bft) 97,32 %
11.01.2016 22:20 5,5 C 87 % 993,7 hPa 0,0 l/m 13,3 km/h (3 Bft) S-SW 208 0 min 0,000 mm 0,0 UV-I 0 W/m 3,5 C 0,6 C 22,5 km/h (4 Bft) 99,13 %
11.01.2016 22:25 5,4 C 87 % 993,8 hPa 0,0 l/m 13,0 km/h (3 Bft) S-SW 202 0 min 0,000 mm 0,0 UV-I 0 W/m 3,4 C 0,6 C 20,9 km/h (4 Bft) 97,25 %
11.01.2016 22:30 5,5 C 86 % 993,9 hPa 0,0 l/m 14,4 km/h (3 Bft) S-SW 192 0 min 0,000 mm 0,0 UV-I 0 W/m 3,3 C -0,0 C 20,9 km/h (4 Bft) 96,75 %
11.01.2016 22:35 5,6 C 86 % 993,9 hPa 0,0 l/m 12,8 km/h (3 Bft) S-SW 200 0 min 0,000 mm 0,0 UV-I 0 W/m 3,4 C 1,0 C 19,3 km/h (3 Bft) 97,54 %
11.01.2016 22:40 5,6 C 86 % 994,0 hPa 0,0 l/m 12,1 km/h (2 Bft) S-SW 204 0 min 0,000 mm 0,0 UV-I 0 W/m 3,4 C 1,4 C 20,9 km/h (4 Bft) 95,61 %
11.01.2016 22:45 5,7 C 85 % 994,0 hPa 0,0 l/m 12,1 km/h (2 Bft) S-SW 198 0 min 0,000 mm 0,0 UV-I 0 W/m 3,4 C 1,5 C 19,3 km/h (3 Bft) 97,46 %
11.01.2016 22:50 5,8 C 85 % 994,1 hPa 0,0 l/m 12,9 km/h (3 Bft) S 185 0 min 0,000 mm 0,0 UV-I 0 W/m 3,5 C 1,2 C 19,3 km/h (3 Bft) 97,39 %
11.01.2016 22:55 5,8 C 85 % 994,1 hPa 0,0 l/m 12,6 km/h (3 Bft) S 178 0 min 0,000 mm 0,0 UV-I 0 W/m 3,5 C 1,3 C 19,3 km/h (3 Bft) 94,74 %
11.01.2016 23:00 5,8 C 85 % 994,1 hPa 0,0 l/m 11,5 km/h (2 Bft) S-SW 198 0 min 0,025 mm 0,0 UV-I 0 W/m 3,5 C 2,0 C 17,7 km/h (3 Bft) 97,58 %
11.01.2016 23:05 5,8 C 84 % 993,9 hPa 0,0 l/m 9,7 km/h (2 Bft) S-SW 199 0 min 0,000 mm 0,0 UV-I 0 W/m 3,3 C 3,2 C 17,7 km/h (3 Bft) 97,44 %
11.01.2016 23:10 5,9 C 84 % 993,8 hPa 0,0 l/m 7,7 km/h (2 Bft) S-SW 202 0 min 0,000 mm 0,0 UV-I 0 W/m 3,4 C 4,8 C 14,5 km/h (3 Bft) 99,15 %
11.01.2016 23:15 6,0 C 84 % 993,9 hPa 0,0 l/m 7,5 km/h (2 Bft) SW 226 0 min 0,000 mm 0,0 UV-I 0 W/m 3,5 C 5,1 C 12,9 km/h (3 Bft) 99,11 %
11.01.2016 23:20 5,9 C 84 % 993,9 hPa 0,0 l/m 10,4 km/h (2 Bft) S-SW 206 0 min 0,000 mm 0,0 UV-I 0 W/m 3,4 C 2,8 C 14,5 km/h (3 Bft) 98,41 %
11.01.2016 23:25 5,9 C 84 % 994,0 hPa 0,0 l/m 13,2 km/h (3 Bft) S 186 0 min 0,000 mm 0,0 UV-I 0 W/m 3,4 C 1,1 C 22,5 km/h (4 Bft) 100,00 %
11.01.2016 23:30 6,1 C 82 % 993,9 hPa 0,0 l/m 14,3 km/h (3 Bft) SW 227 0 min 0,000 mm 0,0 UV-I 0 W/m 3,3 C 0,8 C 25,7 km/h (4 Bft) 97,67 %
11.01.2016 23:35 6,5 C 81 % 994,0 hPa 0,0 l/m 19,3 km/h (3 Bft) W-SW 251 0 min 0,000 mm 0,0 UV-I 0 W/m 3,5 C -1,0 C 33,8 km/h (5 Bft) 98,31 %
11.01.2016 23:40 6,6 C 80 % 994,1 hPa 0,0 l/m 15,5 km/h (3 Bft) SW 232 0 min 0,000 mm 0,0 UV-I 0 W/m 3,4 C 0,8 C 22,5 km/h (4 Bft) 100,00 %
11.01.2016 23:45 6,6 C 80 % 994,3 hPa 0,0 l/m 15,6 km/h (3 Bft) W 267 0 min 0,000 mm 0,0 UV-I 0 W/m 3,4 C 0,7 C 24,1 km/h (4 Bft) 100,00 %
11.01.2016 23:50 6,6 C 80 % 994,4 hPa 0,0 l/m 14,2 km/h (3 Bft) W-SW 244 0 min 0,000 mm 0,0 UV-I 0 W/m 3,4 C 1,4 C 22,5 km/h (4 Bft) 99,11 %
11.01.2016 23:55 6,5 C 82 % 994,5 hPa 0,0 l/m 19,4 km/h (3 Bft) SW 225 0 min 0,000 mm 0,0 UV-I 0 W/m 3,7 C -1,0 C 38,6 km/h (5 Bft) 99,15 %
_ Min-Zeit 07:35 23:40 14:30 - 01:10 - - - - - - 07:35 12:30 01:10 22:55
Minimum _ 0,1 C 80 % 991,9 hPa - 0,0 km/h (0 Bft) - - - - - - -0,0 C -4,7 C 0,0 km/h (0 Bft) 94,74 %
_ Max-Zeit 23:40 00:00 02:25 15:05 17:40 - - 00:00 11:00 00:00 10:20 16:25 23:15 17:35 00:10
Maximum _ 6,6 C 99 % 1001,7 hPa 0,4 l/m 23,8 km/h
S-SW (4 Bft)
- - 0 min 0,026 mm 0,0 UV-I 84 W/m 5,9 C 5,1 C 41,8 km/h
S (6 Bft)
100,00 %
Durchschnitt _ 2,9 C 96 % 995,7 hPa #6,4 l/m 8,3 km/h (2 Bft) S-SW - #0 min. #0,203 mm 0,0 UV-I 30 W/m 2,3 C 0,6 C 14,7 km/h (3 Bft) 98,48 %